Find Starlink 32007

NORAD ID: 60094 Int'l Des: 2024-117 Owner: SPXS Country: US Constellation: starlink operational
LEOCIRCULAR

Current View

Loading 3D Globe...

About Starlink 32007

Starlink 32007 (NORAD 60094) is a starlink constellation satellite (v2 mini) launched Jun 23, 2024 by SPXS of US. It operates in LEO, CIRCULAR orbit with a mass of 730.00 kg.

About Starlink 32007

Description loading...

Upcoming Passes

Passes for default location (London). Set your location on the main map for personalized predictions.

Altitude History

Loading altitude history...

Two-Line Element Set

1 60094U 24117D 26171.33277455 .00000411 00000-0 23294-4 0 9997
2 60094 53.1608 280.2165 0000868 102.9710 257.1390 15.34411829112605
Epoch: Jun 20, 2026 • Age: 23 hours

Current Status

Altitude 481.7 km
Velocity 7.62 km/s
Sub-Earth Point -53.18°S, 176.02°E
Launch Date Jun 23, 2024
Age 1.9 years
Type internet

Technical Details

Classification Payload
Mass 730.00 kg
Dry Mass 700.00 kg
Total Mass 730.00 kg
Length 0.30 m
Diameter 4.10 m
Span 29.00 m
Shape Box + pan
Manufacturer SPXS
Bus Type Starlink V2M
Phase Status In Orbit
Owner/State SPXS/US

Most Searched